{"data":{"norad_id":54052,"epoch":"2026-09-19T22:40:31.986624Z","epoch_age_seconds":134415,"freshness":"FRESH","line1":"1 54052U 22136B   26262.94481466  .00000726  00000+0  63702-4 0  9996","line2":"2 54052  53.1605 151.2320 0001491  97.2392 262.8769 15.08833779216739","mean_motion":15.08833779,"eccentricity":0.0001491,"inclination_deg":53.1605,"raan_deg":151.232,"arg_perigee_deg":97.2392,"mean_anomaly_deg":262.8769,"bstar":6.3702e-5,"rev_number":21673,"period_min":95.437948171758,"perigee_km":538.73094533653,"apogee_km":540.79386293884,"semimajor_km":6917.8994041377,"source":"CELESTRAK","updated_at":"2026-09-21T09:00:33.075772Z"}}